Weather History for Tyler, TX

Change the Weather History Date:

Friday, December 20, 2013

  Actual Average Record
Temperature  
Mean Temperature 70 °F 48 °F  
Max Temperature 73 °F 57 °F 77 °F (1944)
Min Temperature 67 °F 38 °F 12 °F (1901)
Degree Days  
Heating Degree Days 0 18  
Month to date heating degree days 345 328  
Since 1 July heating degree days 735 702  
Cooling Degree Days 5 0  
Month to date cooling degree days 10 0  
Year to date cooling degree days 2777 2411  
Growing Degree Days 20 (Base 50)    
Moisture  
Dew Point 65 °F    
Average Humidity 82    
Maximum Humidity 90    
Minimum Humidity 73    
Precipitation  
Precipitation 0.02 in 0.15 in 1.80 in (1905)
Month to date precipitation 1.57 2.71  
Year to date precipitation 40.58 44.26  
Snow  
Snow 0.00 in - - ()
Month to date snowfall T  
Since 1 July snowfall T  
Snow Depth 0.00 in    
Sea Level Pressure  
Sea Level Pressure 29.80 in    
Wind  
Wind Speed 11 mph (South)    
Max Wind Speed 21 mph    
Max Gust Speed 28 mph    
Visibility 10 miles    
Events      
T = Trace of Precipitation, MM = Missing Value Source: NWS Daily Summary

Daily Weather History Graph

Daily Weather History Graph

Search for Another Location

Airport:

Trip Planner

Search our weather history database for the weather conditions in past years. The results will help you decide how hot, cold, wet, or windy it might be!

Date:

Astronomy

Dec. 20, 2013 Rise Set
Actual Time 7:18 AM CST 5:20 PM CST
Civil Twilight 6:51 AM CST 5:47 PM CST
Nautical Twilight 6:20 AM CST 6:18 PM CST
Astronomical Twilight 5:50 AM CST 6:48 PM CST
Moon 8:32 PM CST 9:21 AM CST
Length of Visible Light 10h 55m
Length of Day
10h 01m
Waning Gibbous, 90% of the Moon is Illuminated
Dec 20
Waning Gibbous
Dec 25
Last Quarter
Jan 1
New
Jan 7
First Quarter
Jan 15
Full

Hourly Weather History & Observations

Time (CST) Temp. Dew Point Humidity Pressure Visibility Wind Dir Wind Speed Gust Speed Precip Events Conditions
12:53 AM 68.0 °F 62.1 °F 81% 29.83 in 10.0 mi South 16.1 mph 24.2 mph N/A   Overcast
1:53 AM 68.0 °F 63.0 °F 84% 29.82 in 10.0 mi South 15.0 mph - N/A   Overcast
2:53 AM 68.0 °F 63.0 °F 84% 29.82 in 10.0 mi South 16.1 mph 24.2 mph N/A   Mostly Cloudy
3:03 AM 68.0 °F 62.6 °F 83% 29.83 in 10.0 mi South 15.0 mph 25.3 mph N/A   Mostly Cloudy
3:32 AM 68.0 °F 62.6 °F 83% 29.84 in 10.0 mi South 17.3 mph - N/A   Overcast
3:53 AM 68.0 °F 63.0 °F 84% 29.82 in 10.0 mi South 17.3 mph - N/A   Overcast
4:53 AM 68.0 °F 63.0 °F 84% 29.82 in 10.0 mi South 13.8 mph - N/A   Overcast
5:53 AM 68.0 °F 64.0 °F 87% 29.81 in 10.0 mi South 11.5 mph - N/A   Overcast
6:53 AM 68.0 °F 64.0 °F 87% 29.83 in 10.0 mi South 15.0 mph - N/A   Mostly Cloudy
7:53 AM 68.0 °F 64.0 °F 87% 29.83 in 10.0 mi South 12.7 mph - N/A   Mostly Cloudy
8:53 AM 69.1 °F 64.0 °F 84% 29.86 in 10.0 mi SSW 10.4 mph - N/A   Overcast
9:53 AM 69.1 °F 64.0 °F 84% 29.88 in 10.0 mi SSW 6.9 mph - N/A   Overcast
10:18 AM 69.8 °F 64.4 °F 83% 29.89 in 10.0 mi South 8.1 mph - N/A   Overcast
10:53 AM 70.0 °F 64.0 °F 81% 29.88 in 10.0 mi South 6.9 mph - N/A   Overcast
11:53 AM 71.1 °F 64.0 °F 78% 29.86 in 10.0 mi South 9.2 mph - N/A   Overcast
12:53 PM 71.1 °F 64.0 °F 78% 29.83 in 10.0 mi South 6.9 mph - N/A   Overcast
1:53 PM 72.0 °F 64.0 °F 76% 29.81 in 10.0 mi South 5.8 mph - N/A   Overcast
2:53 PM 73.0 °F 64.9 °F 76% 29.79 in 10.0 mi South 9.2 mph - N/A   Mostly Cloudy
3:19 PM 73.4 °F 64.4 °F 73% 29.81 in 10.0 mi South 10.4 mph - N/A   Overcast
3:53 PM 72.0 °F 64.9 °F 78% 29.79 in 10.0 mi South 6.9 mph - N/A   Overcast
4:53 PM 70.0 °F 66.0 °F 87% 29.78 in 10.0 mi SSE 6.9 mph - N/A   Scattered Clouds
5:35 PM 69.8 °F 66.2 °F 88% 29.79 in 10.0 mi SSE 5.8 mph - N/A   Overcast
5:51 PM 69.8 °F 66.2 °F 88% 29.79 in 10.0 mi SSE 5.8 mph - N/A   Overcast
5:53 PM 69.1 °F 66.0 °F 90% 29.77 in 10.0 mi SSE 5.8 mph - N/A   Overcast
6:37 PM 69.8 °F 66.2 °F 88% 29.77 in 10.0 mi SE 5.8 mph - N/A   Overcast
6:53 PM 69.1 °F 66.0 °F 90% 29.75 in 10.0 mi SSE 6.9 mph - N/A   Overcast
7:16 PM 69.8 °F 66.2 °F 88% 29.76 in 10.0 mi SSE 9.2 mph - N/A   Mostly Cloudy
7:53 PM 70.0 °F 66.9 °F 90% 29.74 in 10.0 mi SSE 11.5 mph - N/A   Overcast
8:46 PM 71.6 °F 66.2 °F 83% 29.75 in 10.0 mi South 11.5 mph - N/A   Overcast
8:53 PM 71.1 °F 66.9 °F 87% 29.73 in 10.0 mi SSE 15.0 mph 21.9 mph N/A   Overcast
9:53 PM 72.0 °F 66.9 °F 84% 29.73 in 10.0 mi South 13.8 mph - N/A   Overcast
10:53 PM 71.1 °F 68.0 °F 90% 29.72 in 10.0 mi South 12.7 mph - 0.02 in   Overcast
11:53 PM 72.0 °F 66.9 °F 84% 29.70 in 10.0 mi South 17.3 mph 24.2 mph 0.00 in   Mostly Cloudy